Location: Chantarel
(45.1638°N, 1.7873°E)
Time: 20:52:53
(UTC+00:00)

CZ-4B R/B - Pass Details

Date: 03 March 2021
Orbit: 388 x 455 km, 97.6° (Epoch: 13 April)

Event Time Altitude Azimuth Distance (km) Brightness Sun altitude
Rises 18:40:42 0° 2° (N) 2,293 5.0 -11.0°
Reaches altitude 10° 18:42:48 10° 352° (N) 1,435 4.1 -11.3°
Maximum altitude 18:45:30 29° 289° (WNW) 750 3.3 -11.8°
Drops below altitude 10° 18:48:13 10° 227° (SW) 1,439 4.6 -12.3°
Sets 18:50:20 0° 215° (SW) 2,301 5.5 -12.7°
